www.pogodaiklimat.ru

Погода и климат >> Архив погоды >> Индонезия >> Джакарта порт


ПОГОДА в Джакарта порту

  • Прогноз погоды в Джакарта порту
  • Монитор погоды в Джакарта порту

АРХИВ ПОГОДЫ в Джакарта порту

Время (UTC), дата Ветер
(напр.,м/с)
 
Видим.   Явления Облачность Т
(С)
Тd
(С)
f
(%)
Тe
(С)
Тes
(С)
Комфортность P
(гПа)
Po
(гПа)
Тmin
(С)
Tmax
(С)
R
(мм)
R24
(мм)
S
(см)
18 14.09 ЮЗ 2 5000 м 9/8 570 м
[Sc Ac As]
+26.4 +21.0 72 +33 +33 очень
душно
1012.0 1011.6
21 14.09 штиль 0 5000 м 9/6 570 м
[Sc Ac As]
+26.0 +21.2 75 +33 +33 очень
душно
1011.3 1010.9
00 15.09 штиль 0 7000 м 9/5 600 м
[Sc Ac As Ci fib]
+26.0 +21.2 75 +33 +34 очень
душно
1012.2 1011.8 +25.0
03 15.09 В 4 10 км 10/5 600 м
[Sc As trans Cs]
+30.2 +21.7 60 +38 +41 очень
душно
1012.6 1012.2
06 15.09 С 4 11 км 9/4 600 м
[Cu med, cong As trans Cs]
+30.3 +21.8 60 +39 +44 очень
душно
1010.0 1009.7
09 15.09 СВ 3 12 км 8/1 660 м
[Sc As trans Cs]
+29.6 +22.5 66 +39 +41 очень
душно
1008.5 1008.2
12 15.09 СВ 3 6000 м 8/4 600 м
[Sc As trans Ci fib]
+28.5 +22.5 70 +37 +37 очень
душно
1010.6 1010.3 +30.7
18 15.09 ЮВ 2 6000 м 8/4 600 м
[Sc As trans Ci fib]
+27.2 +21.9 73 +35 +35 очень
душно
1010.1 1009.8
21 15.09 ЮВ 2 6000 м 6/4 600 м
[Sc As trans Ci fib]
+26.2 +22.7 81 +35 +35 очень
душно
1010.8 1010.5
00 16.09 ЮВ 4 8000 м 9/4 600 м
[Sc As trans Ci fib]
+26.4 +22.9 81 +35 +36 очень
душно
1011.4 1011.1 +26.0
03 16.09 В 2 10 км 6/4 600 м
[Cu hum As trans Ci fib]
+31.4 +22.7 60 +41 +50 опасность
перегрева
1012.1 1011.8
06 16.09 СВ 5 10 км 6/3 600 м
[Cu med, cong As trans Ci fib]
+32.4 +22.9 57 +42 +49 опасность
перегрева
1009.5 1009.2
09 16.09 СВ 4 10 км 5/1 600 м
[Sc As trans Ci fib]
+30.4 +23.7 67 +41 +44 опасность
перегрева
1008.4 1008.1
12 16.09 В 4 6000 м 5/3 600 м
[Sc As trans Ci fib]
+28.6 +22.8 71 +38 +38 очень
душно
1010.0 1009.7 +32.4
15 16.09 В 2 6000 м 5/1 600 м
[Sc As trans Ci fib]
+27.6 +23.6 79 +38 +38 очень
душно
1011.6 1011.3
18 16.09 ЮВ 2 6000 м 5/1 600 м
[Sc As trans Ci fib]
+27.0 +23.2 80 +36 +36 очень
душно
1011.0 1010.7
21 16.09 В 3 6000 м 5/1 600 м
[Sc As trans Ci fib]
+26.4 +22.9 81 +35 +35 очень
душно
1010.9 1010.6
00 17.09 ЮВ 2 6000 м 9/1 600 м
[Sc As trans Ci fib]
+26.4 +22.3 78 +34 +35 очень
душно
1012.5 1012.2 +25.9
03 17.09 В 4 10 км 9/4 600 м
[Sc As trans Cs]
+30.4 +22.9 64 +40 +45 очень
душно
1013.0 1012.7
06 17.09 СВ 3 10 км 8/3 300 м
[Sc As trans Ci fib]
+31.8 +22.6 58 +41 +49 опасность
перегрева
1010.3 1010.0
09 17.09 СВ 6 10 км 8/3 600 м
[Sc As trans Ci fib]
+30.6 +22.8 63 +40 +41 очень
душно
1009.3 1009.0
12 17.09 В 2 6000 м 8/1 600 м
[Sc As trans Ci fib]
+28.8 +24.5 78 +41 +41 опасность
перегрева
1011.1 1010.8 +32.0
15 17.09 ЮВ 2 5000 м 9/4 630 м
[Sc Ac As]
+27.6 +24.2 82 +39 +39 очень
душно
1012.7 1012.4
18 17.09 В 3 5000 м 9/3 700 м
[Sc As op Ci fib]
+27.0 +23.8 83 +37 +37 очень
душно
1012.0 1011.7
21 17.09 ЮВ 2 5000 м 9/3 700 м
[Sc As op Ci fib]
+26.8 +23.3 81 +36 +36 очень
душно
1012.0 1011.6
00 18.09 В 2 7000 м 9/3 700 м
[Sc As op Ci fib]
+26.8 +23.0 80 +36 +37 очень
душно
1013.3 1012.9 +26.4
03 18.09 С 4 10 км 9/3 700 м
[Sc As op Ci fib]
+30.4 +22.9 64 +40 +45 очень
душно
1013.7 1013.3
06 18.09 СВ 5 10 км 9/3 660 м
[Sc As op Ci fib]
+32.8 +22.7 55 +42 +46 опасность
перегрева
1010.6 1010.2
09 18.09 СВ 5 10 км 9/3 660 м
[Sc As op Ci fib]
+29.8 +24.1 72 +42 +43 опасность
перегрева
1010.0 1009.6
12 18.09 СВ 4 5000 м 9/4 630 м
[Sc Ac As Ci fib]
+28.8 +24.5 78 +41 +41 опасность
перегрева
1012.3 1012.0 +33.0
15 18.09 ЮВ 2 5000 м 9/3 700 м
[Sc As op Ci fib]
+28.4 +24.4 79 +40 +40 очень
душно
1013.0 1012.7
18 18.09 ЮВ 2 5000 м 9/3 700 м
[Sc Ac As Ci fib]
+27.6 +24.2 82 +39 +39 очень
душно
1011.8 1011.5
21 18.09 ЮВ 2 5000 м 9/3 700 м
[Sc As op Ci fib]
+27.0 +23.8 83 +37 +37 очень
душно
1011.0 1010.7
00 19.09 В 2 6000 м мгла 10/5 570 м
[Sc Ac As]
+27.4 +23.7 80 +37 +38 очень
душно
1013.4 1013.1 +26.8
03 19.09 В 4 10 км 8/3 570 м
[Sc As trans Ci fib]
+31.0 +22.6 61 +41 +46 опасность
перегрева
1013.2 1012.9
06 19.09 СВ 4 10 км 8/3 570 м
[Sc Ac As Ci fib]
+31.4 +22.1 58 +40 +47 очень
душно
1010.5 1010.2
09 19.09 СВ 4 10 км 8/3 570 м
[Sc As trans Ci fib]
+31.0 +22.3 60 +40 +42 очень
душно
1009.6 1009.3
12 19.09 В 2 6000 м 8/3 570 м
[Sc As trans Ci fib]
+28.6 +24.0 76 +40 +40 очень
душно
1011.4 1011.1 +31.8
15 19.09 В 2 5000 м 8/4 570 м
[Sc As trans Ci fib]
+28.4 +24.4 79 +40 +40 очень
душно
1012.2 1011.9
18 19.09 В 3 5000 м 8/4 570 м
[Sc As trans Ci fib]
+27.8 +24.7 83 +39 +39 очень
душно
1011.4 1011.1
21 19.09 штиль 0 5000 м 8/5 570 м
[Sc As trans Ci fib]
+27.0 +22.9 78 +36 +36 очень
душно
1010.9 1010.6
00 20.09 штиль 0 8000 м 8/3 600 м
[Sc As op Ci fib]
+26.0 +20.9 74 +33 +34 очень
душно
1012.4 1012.1 +25.8
03 20.09 В 4 9000 м 8/3 600 м
[Sc As trans Ci fib]
+31.0 +21.3 56 +39 +44 очень
душно
1013.0 1012.7
06 20.09 СВ 5 10 км 6/1 600 м
[Sc As trans Ci fib]
+32.2 +20.7 51 +39 +46 очень
душно
1010.4 1010.1
09 20.09 СВ 5 10 км 8/1 600 м
[Sc As trans Cs]
+30.4 +20.9 57 +38 +39 очень
душно
1009.4 1009.1
12 20.09 В 5 6000 м 9/1 600 м
[Sc As trans Ci fib]
+28.8 +22.1 67 +37 +37 очень
душно
1011.5 1011.2 +32.8
15 20.09 ЮВ 2 5000 м 8/1 60 м
[Sc As trans Ci fib]
+28.0 +22.5 72 +37 +37 очень
душно
1011.5 1011.2
18 20.09 ЮВ 2 5000 м 8/1 600 м
[Sc As trans Ci fib]
+26.8 +22.1 75 +35 +35 очень
душно
1011.5 1011.2
21 20.09 ЮВ 2 5000 м 8/1 600 м
[Sc As trans Ci fib]
+26.4 +22.0 77 +34 +34 очень
душно
1011.4 1011.1
00 21.09 ЮЗ 2 8000 м 8/1 600 м
[Sc As trans Ci fib]
+27.0 +21.0 70 +34 +35 очень
душно
1012.4 1012.1 +26.0
03 21.09 ЮВ 4 9000 м 8/3 600 м
[Sc As trans Ci fib]
+31.4 +21.1 54 +39 +45 очень
душно
1012.8 1012.5
06 21.09 ЮВ 5 9000 м 8/1 600 м
[Sc As trans Ci fib]
+32.2 +22.5 57 +42 +48 опасность
перегрева
1010.2 1009.9
09 21.09 СВ 4 9000 м 6/1 600 м
[Sc As trans Ci fib]
+30.5 +21.9 60 +39 +41 очень
душно
1008.9 1008.6
12 21.09 Ю 2 6000 м 6/1 600 м
[Sc As trans Ci fib]
+29.2 +23.1 70 +39 +39 очень
душно
1010.3 1010.0 +32.2

 

Местоположение метеостанции Джакарта порт (Индонезия): широта -6.10 долгота 106.87 высота над уровнем моря 2 м.

В архиве по умолчанию представлена погода в Джакарта порту за последнюю неделю. Архивные данные за месяц целиком и за предыдущие месяцы, начиная с января 2011 года, Вы можете получить, выбрав интересующий диапазон дат из раскрывающегося списка и нажав кнопку "Ввод!".


*Определитесь, кто Вы:
робот инопланетянин человек

Внимание! Время в таблицах - всемирное. Для получения местного времени необходимо прибавить поправку, которая равна 7 ч.

Смотрите также архив погоды в соседних городах и на ближайших метеорологических станциях:

Погода в Джакарте (Индонезия) (10 км)
Погода в Аэропорту Сукарно-Хатта (Индонезия) (24 км)
Погода в Чуруге (Индонезия) (28 км)
Погода в Цитеко (Индонезия) (67 км)
Погода в Серанге (Индонезия) (82 км)
Погода в Бандунге (Индонезия) (119 км)
Погода в Сиребоне (Индонезия) (170 км)
Погода в Танджунгкаранге (Индонезия) (218 км)
Погода в Тегале (Индонезия) (265 км)
Погода в Чилачапе (Индонезия) (298 км)

Пояснения к столбцам:

Ветер - указаны скорость ветра в м/с - средняя за 10 мин, порывы в срок и между сроками (в фигурных скобках) и направление, откуда дует ветер: С - северный, СВ - северо-восточный, В - восточный, ЮВ - юго-восточный, Ю - южный, ЮЗ - юго-западный, З - западный, СЗ - северо-западный.
Видимость - горизонтальная дальность видимости в метрах или километрах. При видимости от 1 до 10 км при отсутствии осадков обычно наблюдается дымка, при ухудшении видимости до 1 км и менее - туман. В сухую погоду видимость может ухудшаться дымом, пылью или мглою.
Явления - указаны атмосферные явления, наблюдавшиеся в срок или в последний час перед сроком; фигурными скобками обозначены явления, наблюдавшиеся между сроками (за 1-3 часа до срока); квадратными скобками обозначены град или гололедные отложения с указанием их диаметра в мм.
Облачность - указаны через наклонную черту общая и нижняя облачность в баллах и высота нижней границы облаков в метрах; квадратными скобками обозначены формы облаков: Ci - перистые, Cs - перисто-слоистые, Cc - перисто-кучевые, Ac - высококучевые, As - высокослоистые, Sc - слоисто-кучевые, Ns - слоисто-дождевые, Cu - кучевые, Cb - кучево-дождевые. Подробнее классификацию облаков см. в Атласе облаков (PDF).
T - Температура воздуха - температура, измеренная на высоте 2 м над землей.
Td - Температура точки росы - температура, при понижении до которой содержащийся в воздухе водяной пар достигнет насыщения.
f - Относительная влажность воздуха - влажноcть воздуха, измеренная на высоте 2 м над землей.
Te - Эффективная температура - температура, которую ощущает одетый по сезону человек в тени. Характеристика душности погоды. При расчете учитывается влияние влажности воздуха и скорости ветра на теплоощущения человека.
Tes - Эффективная температура на солнце - температура, которую ощущает человек, с поправкой на солнечный нагрев. Характеристика знойности погоды. Зависит от высоты солнца над горизонтом, облачности и скорости ветра. Ночью, в пасмурную погоду, а также при ветре 12 м/с и более поправка равна нулю.
P - Атмосферное давление - приведенное к уровню моря атмосферное давление.
Po - Атмосферное давление - измеренное на уровне метеостанции атмосферное давление.
Tmin - Минимальная температура - минимум температуры воздуха на высоте 2 м над землей.
Tmax - Максимальная температура - максимум температуры воздуха на высоте 2 м над землей.
R - Количество осадков - Количество выпавших осадков за период времени, мм. При наведении курсора мыши на число - период времени, за который выпало указанное количество осадков.
R24 - Количество осадков - Количество выпавших осадков за 24 часа, мм.
S - Снежный покров - Высота снежного покрова, см. При наведении курсора мыши на число - состояние снежного покрова и степень покрытия местности в баллах.